This demonstration page uses our WeatherBlox Daily Observations layout. Learn more.

Left ArrowRight Arrow

Hourly Observations for December 22, 2020

Temp ( °F °C ) Dew Point ( °F °C ) Humidity (%) Winds ( mph kmh ) Pressure ( in mb ) Visibility ( mi km ) Precip ( " mm )
12:15 am 00:15 Clear 39 4 28 -2.1 65 65 S 10 17 30.12 1020 10 16 N/A
12:35 am 00:35 Clear 39 3.8 28 -2.3 65 65 S 12 19 30.11 1020 10 16 N/A
12:55 am 00:55 Clear 37 3 28 -2.4 68 68 S 10 17 30.11 1020 10 16 N/A
1:15 am 01:15 Clear 35 1.6 27 -2.6 74 74 S 9 15 30.10 1019 10 16 N/A
1:35 am 01:35 Clear 37 2.6 28 -2.2 71 71 S 10 17 30.09 1019 10 16 N/A
1:55 am 01:55 Clear 36 2.3 28 -2.3 72 72 S 8 13 30.08 1019 10 16 N/A
2:15 am 02:15 Clear 38 3.2 29 -1.5 72 72 S 13 20 30.06 1018 10 16 N/A
2:35 am 02:35 Clear 38 3.2 29 -1.5 72 72 SSW 9 15 30.06 1018 10 16 N/A
2:55 am 02:55 Clear 36 2.3 29 -1.7 75 75 S 9 15 30.07 1018 10 16 N/A
3:15 am 03:15 Clear 36 2.3 29 -1.6 76 76 S 8 13 30.07 1018 10 16 N/A
3:35 am 03:35 Clear 35 1.9 29 -1.6 78 78 SSW 7 11 30.08 1019 10 16 N/A
3:55 am 03:55 Clear 36 2 29 -1.5 78 78 SSW 8 13 30.07 1018 10 16 N/A
4:15 am 04:15 Clear 37 2.6 30 -1.3 76 76 SSW 9 15 30.05 1018 10 16 N/A
4:35 am 04:35 Clear 37 2.6 30 -1.2 76 76 SSW 9 15 30.04 1017 10 16 N/A
4:55 am 04:55 Clear 37 2.5 29 -1.4 76 76 S 9 15 30.04 1017 10 16 N/A
5:15 am 05:15 Clear 36 2 29 -1.7 77 77 S 8 13 30.03 1017 10 16 N/A
5:35 am 05:35 Clear 33 0.4 28 -2.2 83 83 SSE 8 13 30.03 1017 10 16 N/A
5:55 am 05:55 Clear 32 0.2 28 -2.2 84 84 S 5 7 30.02 1017 10 16 N/A
6:15 am 06:15 Clear 32 undefined 28 -2.2 85 85 S 8 13 30.01 1016 10 16 N/A
6:35 am 06:35 Clear 32 undefined 28 -2.2 85 85 S 7 11 30.00 1016 10 16 N/A
6:55 am 06:55 Clear 32 undefined 28 -2 87 87 SSE 5 7 29.99 1016 10 16 N/A
7:15 am 07:15 Clear 33 0.4 30 -1.3 89 89 S 8 13 29.98 1015 10 16 N/A
7:35 am 07:35 Clear 33 0.7 29 -1.5 85 85 S 6 9 29.97 1015 10 16 N/A
7:55 am 07:55 Clear 33 0.5 29 -1.6 86 86 SSE 6 9 29.96 1015 10 16 N/A
8:15 am 08:15 Sunny 33 0.3 29 -1.5 88 88 S 9 15 29.95 1014 10 16 N/A
8:35 am 08:35 Sunny 34 1 30 -1 87 87 S 8 13 29.93 1014 10 16 N/A
8:55 am 08:55 Sunny 37 2.7 32 -0.2 81 81 S 13 20 29.90 1012 10 16 N/A
9:15 am 09:15 Sunny 38 3.5 32 undefined 78 78 S 13 20 29.89 1012 10 16 N/A
9:35 am 09:35 Sunny 39 4.1 32 0.2 76 76 S 15 24 29.88 1012 10 16 N/A
9:55 am 09:55 Sunny 41 5 33 0.6 73 73 S 14 22 29.86 1011 10 16 N/A
10:15 am 10:15 Sunny 42 5.6 33 0.8 72 72 S 15 24 29.84 1011 10 16 N/A
10:35 am 10:35 Sunny 44 6.6 34 1 68 68 S 17 28 29.83 1010 10 16 N/A
10:55 am 10:55 Sunny 46 7.6 35 1.4 65 65 S 16 26 29.81 1010 10 16 N/A
11:15 am 11:15 Sunny 47 8.2 34 1.3 62 62 S 16 26 29.80 1009 10 16 N/A
11:35 am 11:35 Sunny 48 8.7 34 1.2 60 60 S 18 30 29.77 1008 10 16 N/A
11:55 am 11:55 Sunny 49 9.7 35 1.6 57 57 S 18 30 29.75 1007 10 16 N/A
12:15 pm 12:15 Sunny 51 10.5 35 1.4 54 54 S 16 26 29.71 1006 10 16 N/A
12:35 pm 12:35 Sunny 52 11.3 35 1.7 52 52 S 17 28 29.68 1005 10 16 N/A
12:55 pm 12:55 Sunny 54 12.1 35 1.8 50 50 S 14 22 29.65 1004 10 16 N/A
1:15 pm 13:15 Sunny 56 13.5 34 1.1 43 43 S 15 24 29.61 1003 10 16 N/A
1:35 pm 13:35 Sunny 58 14.6 32 -0.1 37 37 S 22 35 29.58 1002 10 16 N/A
1:55 pm 13:55 Sunny 58 14.7 31 -0.7 35 35 S 16 26 29.56 1001 10 16 N/A
2:15 pm 14:15 Sunny 59 15.2 30 -1.1 33 33 S 20 31 29.54 1000 10 16 N/A
2:35 pm 14:35 Sunny 58 14.6 30 -1.2 34 34 S 18 30 29.52 1000 10 16 N/A
2:55 pm 14:55 Sunny 58 14.2 30 -1.3 35 35 S 18 30 29.52 1000 10 16 N/A
3:15 pm 15:15 Sunny 58 14.7 31 -0.7 35 35 S 17 28 29.51 999 10 16 N/A
3:35 pm 15:35 Sunny 58 14.3 31 -0.6 36 36 S 16 26 29.50 999 10 16 N/A
3:55 pm 15:55 Sunny 57 13.7 30 -0.9 37 37 S 16 26 29.49 999 10 16 N/A
4:15 pm 16:15 Sunny 56 13.5 31 -0.6 38 38 S 14 22 29.48 998 10 16 N/A
4:35 pm 16:35 Sunny 56 13.5 31 -0.5 38 38 S 14 22 29.46 998 10 16 N/A
4:55 pm 16:55 Sunny 55 12.5 32 -0.1 42 42 S 13 20 29.46 998 10 16 N/A
5:15 pm 17:15 Clear 51 10.7 32 undefined 48 48 S 10 17 29.47 998 10 16 N/A
5:35 pm 17:35 Clear 50 9.9 32 -0.2 50 50 S 10 17 29.47 998 10 16 N/A
5:55 pm 17:55 Clear 52 11 29 -1.5 42 42 S 15 24 29.45 997 10 16 N/A
6:15 pm 18:15 Clear 53 11.8 29 -1.5 40 40 S 14 22 29.45 997 10 16 N/A
6:35 pm 18:35 Clear 52 11 30 -1.3 43 43 S 16 26 29.44 997 10 16 N/A
6:55 pm 18:55 Clear 51 10.8 31 -0.8 45 45 S 16 26 29.45 997 10 16 N/A
7:15 pm 19:15 Clear 50 9.9 31 -0.6 48 48 S 13 20 29.43 997 10 16 N/A
7:35 pm 19:35 Clear 49 9.5 31 -0.5 50 50 S 15 24 29.43 997 10 16 N/A
7:55 pm 19:55 Clear 47 8.6 31 -0.3 54 54 S 12 19 29.42 996 10 16 N/A
8:15 pm 20:15 Clear 46 7.7 31 -0.3 57 57 S 12 19 29.41 996 10 16 N/A
8:35 pm 20:35 Clear 45 7.3 31 -0.5 58 58 S 9 15 29.41 996 10 16 N/A
8:55 pm 20:55 Clear 45 7.3 31 -0.7 57 57 SSE 10 17 29.40 995 10 16 N/A
9:15 pm 21:15 Clear 46 7.5 31 -0.3 58 58 S 14 22 29.38 995 10 16 N/A
9:35 pm 21:35 Clear 45 7.3 32 undefined 60 60 S 12 19 29.37 994 10 16 N/A
9:55 pm 21:55 Clear 44 6.7 32 undefined 63 63 S 13 20 29.36 994 10 16 N/A
10:15 pm 22:15 Clear 44 6.7 32 undefined 63 63 S 10 17 29.35 994 10 16 N/A
10:35 pm 22:35 Clear 45 7 32 undefined 61 61 S 13 20 29.35 994 10 16 N/A
10:55 pm 22:55 Clear 44 6.5 32 undefined 64 64 S 9 15 29.34 994 10 16 N/A
11:15 pm 23:15 Clear 42 5.8 32 undefined 67 67 SSW 7 11 29.37 995 10 16 N/A
11:35 pm 23:35 Clear 42 5.6 32 -0.2 67 67 SW 6 9 29.37 995 10 16 N/A
11:55 pm 23:55 Clear 41 4.9 31 -0.6 68 68 W 10 17 29.40 996 10 16 N/A

Powered by AerisWeather